Weather History for Lawton, OK

Change the Weather History Date:

Wednesday, October 17, 2012

  Actual Average Record
Temperature  
Mean Temperature 70 °F -  
Max Temperature 81 °F 75 °F 98 °F (1972)
Min Temperature 59 °F 48 °F 0 °F (2013)
Cooling Degree Days 5    
Growing Degree Days 20 (Base 50)    
Moisture  
Dew Point 46 °F    
Average Humidity 50    
Maximum Humidity 90    
Minimum Humidity 21    
Precipitation  
Precipitation 0.00 in - - ()
Sea Level Pressure  
Sea Level Pressure 29.61 in    
Wind  
Wind Speed 10 mph (NNW)    
Max Wind Speed 24 mph    
Max Gust Speed 36 mph    
Visibility 10 miles    
Events      
Averages and records for this station are not official NWS values.
T = Trace of Precipitation, MM = Missing Value Source: NWS Daily Summary

Daily Weather History Graph

Daily Weather History Graph

Search for Another Location

Airport:

Trip Planner

Search our weather history database for the weather conditions in past years. The results will help you decide how hot, cold, wet, or windy it might be!

Date:

Astronomy

Oct. 17, 2012 Rise Set
Actual Time 7:41 AM CDT 6:55 PM CDT
Civil Twilight 7:15 AM CDT 7:21 PM CDT
Nautical Twilight 6:46 AM CDT 7:50 PM CDT
Astronomical Twilight 6:17 AM CDT 8:19 PM CDT
Moon 10:09 AM CDT (10/17) 8:41 PM CDT (10/17)
Length of Visible Light 12h 05m
Length of Day
11h 14m
Waxing Crescent, 7% of the Moon is Illuminated
Oct 17
Waxing Crescent
Oct 21
First Quarter
Oct 29
Full
Nov 6
Last Quarter
Nov 13
New

Hourly Weather History & Observations

Time (CDT) Temp. Dew Point Humidity Pressure Visibility Wind Dir Wind Speed Gust Speed Precip Events Conditions
12:53 AM 64.9 °F 59.0 °F 81% 29.52 in 10.0 mi SE 5.8 mph - N/A   Clear
1:53 AM 64.9 °F 59.0 °F 81% 29.51 in 10.0 mi South 6.9 mph - N/A   Clear
2:53 AM 63.0 °F 59.0 °F 87% 29.50 in 10.0 mi SE 5.8 mph - N/A   Clear
3:53 AM 62.1 °F 59.0 °F 90% 29.48 in 10.0 mi SE 4.6 mph - N/A   Clear
4:53 AM 62.1 °F 59.0 °F 90% 29.45 in 10.0 mi South 5.8 mph - N/A   Clear
5:53 AM 64.9 °F 59.0 °F 81% 29.44 in 10.0 mi SSW 4.6 mph - N/A   Clear
6:53 AM 62.1 °F 57.9 °F 86% 29.45 in 10.0 mi Calm Calm - N/A   Clear
7:53 AM 63.0 °F 55.9 °F 78% 29.46 in 10.0 mi SW 9.2 mph - N/A   Clear
8:53 AM 66.0 °F 50.0 °F 56% 29.48 in 10.0 mi West 8.1 mph - N/A   Clear
9:53 AM 73.0 °F 48.0 °F 41% 29.51 in 10.0 mi North 24.2 mph 31.1 mph N/A   Clear
10:53 AM 75.9 °F 50.0 °F 40% 29.54 in 10.0 mi North 23.0 mph 31.1 mph N/A   Clear
11:53 AM 79.0 °F 48.9 °F 35% 29.59 in 10.0 mi North 24.2 mph 35.7 mph N/A   Clear
12:53 PM 80.1 °F 46.9 °F 31% 29.62 in 10.0 mi North 24.2 mph 31.1 mph N/A   Clear
1:53 PM 80.1 °F 45.0 °F 29% 29.62 in 10.0 mi NNW 21.9 mph 32.2 mph N/A   Clear
2:53 PM 81.0 °F 39.9 °F 23% 29.64 in 10.0 mi NNW 18.4 mph 25.3 mph N/A   Clear
3:53 PM 79.0 °F 41.0 °F 26% 29.66 in 10.0 mi North 20.7 mph 27.6 mph N/A   Clear
4:53 PM 78.1 °F 37.9 °F 24% 29.69 in 10.0 mi NNW 15.0 mph 25.3 mph N/A   Clear
5:53 PM 75.9 °F 33.1 °F 21% 29.71 in 10.0 mi NNW 15.0 mph 21.9 mph N/A   Clear
6:53 PM 72.0 °F 30.9 °F 22% 29.74 in 10.0 mi NNW 10.4 mph - N/A   Clear
7:53 PM 66.0 °F 32.0 °F 28% 29.76 in 10.0 mi North 8.1 mph - N/A   Clear
8:53 PM 62.1 °F 35.1 °F 37% 29.78 in 10.0 mi NNW 5.8 mph - N/A   Clear
9:53 PM 61.0 °F 34.0 °F 36% 29.82 in 10.0 mi NNW 8.1 mph - N/A   Clear
10:53 PM 59.0 °F 30.9 °F 35% 29.85 in 10.0 mi North 10.4 mph - N/A   Clear
11:53 PM 59.0 °F 30.9 °F 35% 29.85 in 10.0 mi NNE 9.2 mph - N/A   Clear